Regional Weather Roundup
Issued by NWS Sioux Falls, SD

Home | Current Version | Previous Version | Graphics & Text | Print | Product List | Glossary Off
Versions: 1 2 3 4 5 6 7 8 9 10 11 12 13 14 15 16 17 18 19 20 21 22 23 24 25 26 27 28 29 30 31 32 33 34 35 36 37 38 39 40 41 42 43 44 45 46 47 48 49 50

000
ASUS43 KFSD 271610
RWRFSD

WEATHER ROUNDUP FOR SE SOUTH DAKOTA/SW MINNESOTA/NW IOWA
NATIONAL WEATHER SERVICE SIOUX FALLS SD
1100 AM CDT WED MAY 27 2015

NOTE: "FAIR" INDICATES FEW OR NO CLOUDS BELOW 12,000 FEET WITH NO
SIGNIFICANT WEATHER AND OR OBSTRUCTIONS TO VISIBILITY.


SDZ038>040-050-052>070-271700-
SOUTHEAST SOUTH DAKOTA

CITY           SKY/WX    TMP DP  RH WIND       PRES   REMARKS
BROOKINGS      SUNNY     73  54  49 NW8       30.00R
CHAMBERLAIN    SUNNY     72  54  53 SW3       30.03F
HURON          SUNNY     76  52  43 N6        30.00S
MITCHELL       SUNNY     76  53  44 CALM      30.02R
SIOUX FALLS    MOSUNNY   77  54  44 CALM      30.01R
WINNER         FAIR      74  51  44 SW14      30.04S
YANKTON        SUNNY     73  54  49 W5        30.02S
$$

MNZ071-072-080-081-089-090-097-098-271700-
SOUTHWEST MINNESOTA

CITY           SKY/WX    TMP DP  RH WIND       PRES   REMARKS
FAIRMONT       SUNNY     72  54  53 W8        29.98S
JACKSON        SUNNY     72  59  64 W8        30.00R
LUVERNE        SUNNY     73  55  53 W9        30.02R
MARSHALL       SUNNY     73  50  43 NW7       29.96S
MONTEVIDEO     SUNNY     73  57  56 N6        29.96R
REDWOOD FALLS  SUNNY     72  56  57 W8        29.95R
TRACY          SUNNY     74  55  52 NW9       29.98S
WINDOM         SUNNY     73  55  53 W6        29.99R
WORTHINGTON    SUNNY     73  54  49 W13       30.00S
$$

IAZ001>003-012>014-020>022-031-032-NEZ013-014-SDZ071-271700-
NORTHWEST IOWA

CITY           SKY/WX    TMP DP  RH WIND       PRES   REMARKS
CHEROKEE       SUNNY     72  60  67 SW7       30.03R
DENISON        SUNNY     68  63  83 VRB5      30.03F
ESTHERVILLE    SUNNY     72  57  59 W7        30.00R
LE MARS        SUNNY     75  55  50 VRB5      30.04S
ORANGE CITY    SUNNY     72  55  56 W5        30.03S
SHELDON        SUNNY     73  66  78 W9        30.01S
SIOUX CITY     SUNNY     73  56  54 CALM      30.04S
SPENCER        SUNNY     74  59  59 W13       30.01R
STORM LAKE     SUNNY     72  59  64 W12       30.05R
$$

ABBREVIATIONS USED IN REMARKS
   TC - TEMPERATURE IN CELSIUS
  WCI - WIND CHILL INDEX
   HX - HEAT INDEX
  VSB - VISIBILITY



USA.gov is the U.S. government's official web portal to all federal, state and local government web resources and services.